Flag for Burundi Weather past 2 weeks in Muyinga, Burundi

Now
77 °F

Broken clouds.


Feels Like: 79 °F
Forecast: 60 / 73 °F
Wind: 10 mph from Southeast

Location: Kigali Airport

Current Time: Jul 4, 2015 at 4:39:33 PM

Latest Report: Jul 4, 2015 at 4:00 PM


Visibility: N/A

Pressure: 30.18 "Hg (24.70 "Hg at 1749m altitude)

Humidity: 54%

Dew point: 59 °F

Location of MuyingaLocation

Historic Weather in Muyinga — Graph

°F

Muyinga temperature yesterday

Maximum temperature yesterday: 79 °F (at 1:00 PM)
Minimum temperature yesterday: 63 °F (at 5:00 AM)
Average temperature yesterday: 71 °F

Past Weeks' High & Low Weather Summary

 TemperatureHumidityPressure
High82 °F (Jun 28, 3:00 PM)100% (Jun 20, 1:30 AM)30.30 "Hg (Jun 20, 1:30 AM)
Low59 °F (Jun 30, 5:00 AM)45% (Jun 23, 3:30 PM)30.09 "Hg (Jun 19, 3:00 PM)
Average71 °F73%30.20 "Hg
* Reported Jun 19 3:00 PM — Jul 4 3:30 PM, Muyinga, Weather by CustomWeather, © 2015

Note: Actual official high and low records may vary slightly from our data, if they occured in-between our weather recording intervals... More about our weather records

Advertising

Muyinga weather history for previous 24 hours

 ConditionsComfort  
Time TempWeatherWind HumidityBarometerVisibility
3:30 PM
Sat, Jul 4
77 °FBroken clouds.9 mph54%30.18 "HgN/A
3:00 PM77 °FBroken clouds.8 mph54%30.18 "HgN/A
2:30 PM77 °FBroken clouds.6 mph54%30.18 "HgN/A
2:00 PM77 °FBroken clouds.8 mph54%30.18 "HgN/A
1:30 PM79 °FBroken clouds.5 mph51%30.21 "HgN/A
1:00 PM77 °FBroken clouds.7 mph57%30.21 "HgN/A
12:30 PM77 °FBroken clouds.7 mph57%30.21 "HgN/A
12:00 PM75 °FBroken clouds.7 mph57%30.24 "HgN/A
11:30 AM77 °FBroken clouds.6 mph57%30.27 "HgN/A
11:00 AM75 °FScattered clouds.5 mph61%30.27 "HgN/A
10:30 AM75 °FScattered clouds.3 mph61%30.27 "HgN/A
10:00 AM72 °FScattered clouds.3 mph69%30.27 "HgN/A
9:30 AM72 °FScattered clouds.No wind69%30.27 "HgN/A
9:00 AM70 °FScattered clouds.No wind78%30.27 "HgN/A
8:30 AM66 °FPassing clouds.No wind88%30.27 "HgN/A
8:00 AM66 °FPassing clouds.5 mph88%30.24 "HgN/A
7:30 AM64 °FPassing clouds.No wind94%30.24 "HgN/A
7:00 AM63 °FPassing clouds.No wind100%30.21 "HgN/A
6:30 AM61 °FPassing clouds.No wind100%30.18 "Hg5 mi
6:00 AM61 °FPassing clouds.No wind100%30.18 "Hg5 mi
5:30 AM61 °FPassing clouds.3 mph100%30.18 "HgN/A
5:00 AM61 °FPassing clouds.5 mph100%30.18 "HgN/A
4:30 AM61 °FPassing clouds.3 mph100%30.18 "HgN/A
4:00 AM63 °FPassing clouds.No wind94%30.15 "HgN/A
3:30 AM63 °FPassing clouds.No wind94%30.18 "HgN/A
3:00 AM64 °FPassing clouds.No wind88%30.18 "HgN/A
2:30 AM64 °FPassing clouds.3 mph88%30.18 "HgN/A
2:00 AM64 °FPassing clouds.3 mph88%30.18 "HgN/A
1:30 AM66 °FPassing clouds.5 mph88%30.18 "HgN/A
1:00 AM66 °FPassing clouds.6 mph88%30.21 "HgN/A
12:30 AM66 °FPassing clouds.6 mph88%30.18 "HgN/A
12:00 AM66 °FLight rain. Passing clouds.6 mph88%30.21 "HgN/A
11:30 PM
Fri, Jul 3
66 °FPassing clouds.5 mph83%30.21 "HgN/A
11:00 PM66 °FPassing clouds.6 mph83%30.21 "HgN/A
10:30 PM66 °FPartly cloudy.No wind83%30.21 "HgN/A
10:00 PM68 °FPartly cloudy.No wind78%30.24 "HgN/A
9:30 PM68 °FPartly cloudy.3 mph78%30.24 "HgN/A
9:00 PM68 °FPartly cloudy.6 mph78%30.21 "HgN/A
8:30 PM70 °FPartly cloudy.6 mph73%30.21 "HgN/A
8:00 PM72 °FPartly cloudy.6 mph61%30.18 "HgN/A
7:30 PM73 °FPartly cloudy.6 mph57%30.18 "HgN/A
7:00 PM73 °FPartly cloudy.7 mph57%30.15 "HgN/A
6:30 PM75 °FPassing clouds.9 mph57%30.15 "HgN/A
6:00 PM75 °FScattered clouds.8 mph57%30.15 "HgN/A
5:30 PM77 °FScattered clouds.10 mph54%30.12 "HgN/A
5:00 PM77 °FScattered clouds.10 mph54%30.12 "HgN/A
4:30 PM79 °FScattered clouds.12 mph51%30.12 "HgN/A
4:00 PM79 °FScattered clouds.8 mph51%30.12 "HgN/A
Weather by CustomWeather, © 2015

See weather overviewHow to use our weather pages